GFRAS BIRK-BIKF

Flight info

Callsign GFRAS
Flight time 0h 14m
Altitude 1500
Route VFR ROUTE 6
Aircraft C208/L-VGD/A

Departure

Time 2026-05-06 14:50
Airport Reykjavík Domestic Airport (BIRK)

Arrival

Time 2026-05-06 15:04
Airport Keflavik International Airport (BIKF)
Time Latitude Longitude Altitude Speed Heading
2026-05-06 14:38 64.13098 -21.93468 40 ft 0 kts 355°
2026-05-06 14:45 64.13100 -21.93468 40 ft 0 kts 354°
2026-05-06 14:46 64.13105 -21.93471 40 ft 2 kts 342°
2026-05-06 14:46 64.13098 -21.93538 38 ft 9 kts 195°
2026-05-06 14:46 64.13017 -21.93553 35 ft 13 kts 178°
2026-05-06 14:46 64.12919 -21.93520 32 ft 14 kts 155°
2026-05-06 14:47 64.12814 -21.93487 28 ft 15 kts 178°
2026-05-06 14:47 64.12719 -21.93468 25 ft 14 kts 177°
2026-05-06 14:47 64.12617 -21.93451 22 ft 15 kts 171°
2026-05-06 14:47 64.12509 -21.93426 19 ft 14 kts 176°
2026-05-06 14:48 64.12447 -21.93466 15 ft 6 kts 253°
2026-05-06 14:48 64.12447 -21.93469 15 ft 0 kts 253°
2026-05-06 14:49 64.12446 -21.93476 15 ft 2 kts 256°
2026-05-06 14:49 64.12444 -21.93563 13 ft 9 kts 271°
2026-05-06 14:49 64.12492 -21.93671 12 ft 16 kts 355°
2026-05-06 14:49 64.12836 -21.93738 21 ft 78 kts 356°
2026-05-06 14:50 64.13429 -21.93881 267 ft 85 kts 356°
2026-05-06 14:50 64.14008 -21.93990 547 ft 87 kts
2026-05-06 14:50 64.14644 -21.94109 778 ft 94 kts 354°
2026-05-06 14:50 64.15256 -21.94737 1006 ft 105 kts 320°
2026-05-06 14:51 64.15421 -21.96458 1139 ft 124 kts 263°
2026-05-06 14:51 64.14975 -21.98166 1295 ft 130 kts 227°
2026-05-06 14:51 64.14146 -21.99189 1295 ft 143 kts 194°
2026-05-06 14:51 64.13064 -21.99453 1068 ft 167 kts 181°
2026-05-06 14:52 64.11880 -21.99463 1020 ft 171 kts 177°
2026-05-06 14:52 64.10688 -21.99382 1002 ft 172 kts 177°
2026-05-06 14:52 64.09493 -21.99289 983 ft 172 kts 176°
2026-05-06 14:52 64.08292 -21.99223 935 ft 174 kts 178°
2026-05-06 14:53 64.07076 -21.99202 908 ft 174 kts 181°
2026-05-06 14:53 64.05876 -21.99538 886 ft 174 kts 195°
2026-05-06 14:53 64.04794 -22.00720 876 ft 171 kts 221°
2026-05-06 14:53 64.04078 -22.02836 831 ft 168 kts 251°
2026-05-06 14:54 64.03731 -22.05349 837 ft 164 kts 259°
2026-05-06 14:54 64.03378 -22.07787 885 ft 163 kts 253°
2026-05-06 14:54 64.02914 -22.10204 871 ft 165 kts 250°
2026-05-06 14:54 64.02415 -22.12545 906 ft 164 kts 248°
2026-05-06 14:55 64.01899 -22.14858 895 ft 165 kts 248°
2026-05-06 14:55 64.01402 -22.17215 926 ft 163 kts 250°
2026-05-06 14:55 64.00929 -22.19594 967 ft 163 kts 250°
2026-05-06 14:55 64.00449 -22.21941 912 ft 168 kts 250°
2026-05-06 14:56 63.99966 -22.24364 940 ft 166 kts 251°
2026-05-06 14:56 63.99478 -22.26727 981 ft 165 kts 249°
2026-05-06 14:56 63.98946 -22.29083 945 ft 169 kts 247°
2026-05-06 14:56 63.98392 -22.31430 973 ft 167 kts 246°
2026-05-06 14:57 63.97832 -22.33750 894 ft 165 kts 247°
2026-05-06 14:57 63.97319 -22.36035 792 ft 163 kts 249°
2026-05-06 14:57 63.96811 -22.38325 720 ft 160 kts 249°
2026-05-06 14:57 63.96323 -22.40591 660 ft 157 kts 250°
2026-05-06 14:58 63.95917 -22.42901 607 ft 153 kts 260°
2026-05-06 14:58 63.95749 -22.45178 657 ft 141 kts 275°
2026-05-06 14:58 63.95798 -22.47346 678 ft 134 kts 288°
2026-05-06 14:58 63.96062 -22.49341 695 ft 128 kts 302°
2026-05-06 14:59 63.96477 -22.51086 715 ft 124 kts 309°
2026-05-06 14:59 63.96931 -22.52777 720 ft 125 kts 310°
2026-05-06 14:59 63.97396 -22.54431 769 ft 122 kts 311°
2026-05-06 14:59 63.97860 -22.56074 779 ft 125 kts 305°
2026-05-06 15:00 63.98097 -22.58029 765 ft 135 kts 279°
2026-05-06 15:00 63.98044 -22.60246 699 ft 142 kts 272°
2026-05-06 15:00 63.97950 -22.62436 754 ft 138 kts 268°
2026-05-06 15:00 63.97512 -22.64354 786 ft 144 kts 221°
2026-05-06 15:01 63.96539 -22.64891 763 ft 145 kts 172°
2026-05-06 15:01 63.95579 -22.64754 916 ft 132 kts 176°
2026-05-06 15:01 63.94670 -22.64692 985 ft 128 kts 175°
2026-05-06 15:01 63.93790 -22.64588 1034 ft 127 kts 174°
2026-05-06 15:02 63.92951 -22.64055 1064 ft 121 kts 136°
2026-05-06 15:02 63.92532 -22.62600 1101 ft 106 kts 93°
2026-05-06 15:02 63.92686 -22.61094 1058 ft 95 kts 44°
2026-05-06 15:02 63.93294 -22.60518 952 ft 100 kts
2026-05-06 15:03 63.93925 -22.60573 914 ft 86 kts
2026-05-06 15:03 63.94522 -22.60625 736 ft 83 kts
2026-05-06 15:03 63.95084 -22.60597 529 ft 79 kts
2026-05-06 15:03 63.95616 -22.60581 341 ft 75 kts
2026-05-06 15:04 63.96125 -22.60573 218 ft 72 kts
2026-05-06 15:04 63.96605 -22.60565 124 ft 63 kts
2026-05-06 15:04 63.96892 -22.60555 129 ft 27 kts
2026-05-06 15:04 63.97049 -22.60552 135 ft 20 kts 359°
2026-05-06 15:05 63.97189 -22.60553 140 ft 19 kts
2026-05-06 15:05 63.97324 -22.60547 142 ft 17 kts
2026-05-06 15:05 63.97394 -22.60443 146 ft 10 kts 99°
2026-05-06 15:05 63.97373 -22.60315 148 ft 7 kts 113°
2026-05-06 15:06 63.97371 -22.60303 148 ft 0 kts 114°
2026-05-06 15:06 63.97369 -22.60292 148 ft 4 kts 114°
2026-05-06 15:07 63.97338 -22.60131 151 ft 15 kts 112°
2026-05-06 15:07 63.97288 -22.59859 154 ft 21 kts 113°
2026-05-06 15:07 63.97232 -22.59556 160 ft 19 kts 114°
2026-05-06 15:07 63.97263 -22.59352 166 ft 10 kts 85°
2026-05-06 15:08 63.97248 -22.59247 168 ft 0 kts 112°